www.pogodaiklimat.ru

ПОГОДА в Норт-Платте, NE

  • Прогноз погоды в Норт-Платте
  • Монитор погоды в Норт-Платте
  • Климат в Норт-Платте

АРХИВ ПОГОДЫ в Норт-Платте

Время (UTC), дата Ветер
(напр.,м/с)
 
Видим.   Явления Облачность Т
(С)
Тd
(С)
f
(%)
Тe
(С)
Тes
(С)
Комфортность

P
(гПа)

Po
(гПа)
Тmin
(С)
Tmax
(С)
R
(мм)
SD
(см)
20:53 23.06 С  6
{9} 
16 км    10/2 1650 м
[средняя] 
+13.9  +11.7  87  +12  +13    1012.4  915.2         
21:53 23.06 СЗ  16 км    10/2 480 м
[средняя] 
+14.4  +10.6  78  +12  +13    1013.0  915.8         
22:53 23.06 СЗ  7
{10} 
16 км    2/2 1320 м
[средняя] 
+13.9  +10.0  77  +11  +12    1013.0  915.8  +12.2  +20.0  1.8   
23:53 23.06 СЗ  16 км    10/0 2400 м
[средняя] 
+13.3  +10.6  84  +11  +12    1012.8  915.5         
00:53 24.06 СЗ  16 км  слабый дождь  10/0 2250 м
[средняя] 
+13.3  +10.6  84  +11  +11    1012.2  915.5         
01:53 24.06 СЗ  16 км    10/0 2250 м
[средняя] 
+12.2  +10.0  86  +10  +10    1012.6  915.8      0.5   
02:53 24.06 СЗ  16 км  слабый дождь  10/0 2100 м
[средняя] 
+12.2  +10.6  90  +11  +11    1012.3  915.5         
03:53 24.06 СЗ  16 км    5/0 3300 м
[средняя] 
+11.7  +10.6  93  +10  +10    1011.8  915.5         
04:53 24.06 З  16 км    ясно  +10.6  +9.4  92  +8  +8    1011.8  915.2  +10.6  +13.9  0.5   
05:53 24.06 З  16 км    2/0 3600 м
[средняя] 
+10.6  +8.9  89  +9  +9    1011.3  914.9         
06:53 24.06 СЗ  16 км    ясно  +8.9  +7.8  93  +7  +7    1011.3  914.5         
07:53 24.06 СЗ  16 км    ясно  +8.3  +6.7  90  +6  +6    1011.7  914.5         
08:53 24.06 З  16 км    ясно  +7.8  +6.1  89  +5  +5    1011.4  914.2         
09:53 24.06 СЗ  16 км    ясно  +6.7  +5.6  93  +5  +5    1011.2  913.9         
10:53 24.06 З  16 км    ясно  +8.3  +6.7  90  +7  +7    1011.4  914.2  +6.1  +10.6     
11:53 24.06 З  16 км    ясно  +11.7  +8.9  83  +10  +10    1010.8  913.9         
12:53 24.06 З  16 км    ясно  +15.0  +11.1  77  +14  +16    1010.4  913.9         
13:53 24.06 З  16 км    ясно  +17.2  +11.7  70  +17  +21    1010.2  913.9         
14:53 24.06 нст  16 км    ясно  +20.6  +11.7  57  +23  +32  комфорт  1009.3  913.3         
15:53 24.06 ЮЗ  16 км    ясно  +22.2  +12.2  53  +25  +36  комфорт  1009.0  913.0         
16:53 24.06 ЮЗ  16 км    ясно  +24.4  +12.2  46  +26  +37  жарко  1008.5  912.7  +8.3  +24.4     
17:53 24.06 ЮЗ  16 км    ясно  +26.1  +11.1  39  +27  +39  жарко  1007.9  912.4         
18:53 24.06 ЮЗ  16 км    ясно  +26.7  +11.7  39  +28  +41  жарко  1007.6  912.1         
19:53 24.06 З  16 км    ясно  +27.2  +10.6  35  +28  +35  жарко  1007.2  911.8         
20:53 24.06 СЗ  16 км    ясно  +28.3  +11.1  34  +29  +39  жарко  1006.6  911.2         
21:53 24.06 СЗ  16 км    ясно  +28.9  +11.7  34  +30  +39  жарко  1006.3  910.9         
22:53 24.06   16 км    ясно  +28.9  +11.1  33  +29  +39  жарко  1005.7  910.6  +24.4  +29.4     
23:53 24.06   16 км    ясно  +27.8  +13.3  41  +30  +34  жарко  1005.6  910.6         
00:53 25.06   16 км    ясно  +23.3  +17.8  71  +29  +30  душно  1005.9  910.9         
01:53 25.06 ЮВ  16 км    ясно  +18.9  +14.4  75  +20  +20    1006.2  910.9         
02:53 25.06   16 км    ясно  +16.7  +13.9  84  +17  +17    1006.5  911.2         
03:53 25.06 СЗ  16 км    ясно  +15.6  +11.7  78  +16  +16    1006.8  911.5         
04:53 25.06 СВ  4
{10} 
16 км    ясно  +18.9  +11.7  63  +19  +19    1007.7  912.7  +15.0  +29.4     
05:53 25.06 ЮЗ  16 км    ясно  +15.6  +11.1  75  +15  +15    1008.5  913.3         
06:53 25.06 СВ  16 км    ясно  +12.2  +10.0  86  +12  +12    1009.7  914.2         
07:53 25.06   16 км    ясно  +11.7  +10.0  89  +11  +11    1010.6  914.9         
08:53 25.06 СВ  16 км    ясно  +10.6  +9.4  92  +10  +10    1010.3  914.5         
09:53 25.06   16 км    ясно  +10.6  +8.9  89  +10  +10    1010.3  914.9         
10:53 25.06   16 км    ясно  +11.1  +8.9  86  +10  +10    1011.3  915.8  +10.0  +18.3     
11:53 25.06   16 км    ясно  +15.0  +11.7  81  +15  +15    1011.3  916.1         
12:53 25.06 ЮВ  16 км    ясно  +18.9  +13.3  70  +20  +21    1011.4  916.1         
13:53 25.06 нст  16 км    ясно  +21.7  +12.2  55  +24  +28  комфорт  1012.1  916.4         
14:53 25.06 В  16 км    ясно  +23.9  +13.3  51  +26  +33  жарко  1012.0  916.4         
15:53 25.06 В  16 км    ясно  +25.6  +13.3  46  +28  +36  жарко  1012.3  916.7         
16:53 25.06 Ю  16 км    ясно  +26.7  +13.3  44  +29  +41  жарко  1011.8  916.7  +11.1  +27.2     
17:53 25.06 Ю  16 км    ясно  +27.8  +12.8  40  +29  +45  жарко  1011.7  916.4         
18:53 25.06 ЮВ  16 км    ясно  +28.3  +12.8  38  +30  +41  жарко  1012.0  916.4         
19:53 25.06 ЮВ  16 км    ясно  +28.3  +13.9  41  +30  +41  жарко  1011.8  916.1         

 

Местоположение метеостанции North Platte Regional Airport: широта 41.1219 долгота -100.6683 высота над уровнем моря 846 м.

В архиве по умолчанию представлена погода в Норт-Платте за последние 1-2 суток. Обновление информации о фактической погоде в базе происходит ежечасно! Архивные данные за месяц целиком и за предыдущие месяцы Вы можете получить, выбрав интересующий диапазон дат из раскрывающегося списка и нажав кнопку "Ввод!".

Внимание! Архив погоды МЕТАР в базе сайта хранится не более 60 дней. Нет смысла пытаться выбрать более раннюю дату.

Внимание! Время в таблицах - всемирное. Для получения местного времени необходимо прибавить поправку, которая в Норт-Платте равна -6 ч.

Ветер - указаны скорость ветра в м/с и направление, откуда дует ветер: С - северный, СВ - северо-восточный, В - восточный, ЮВ - юго-восточный, Ю - южный, ЮЗ - юго-западный, З - западный, СЗ - северо-западный.
Видимость - горизонтальная дальность видимости в метрах или километрах. При видимости от 1 до 10 км при отсутствии осадков обычно наблюдается дымка, при ухудшении видимости до 1 км и менее - туман. В сухую погоду видимость может ухудшаться дымом, пылью или мглою.
Атмосферные явления - указаны явления, наблюдавшиеся в указанный момент времени.
Облачность - указаны через наклонную черту верхняя и нижняя облачность в баллах и высота нижней границы облаков в метрах. Внимание: облачность, как и прочие метеорологические величины в США измеряются автоматическими метеостанциями. Указанные значения в баллах носят условный характер и показывают процент времени, в течение которого, в среднем, лазерный луч высотомера отражался от облаков обратно.
T - Температура воздуха - температура, измеренная на высоте 2 м над землей.
Td - Температура точки росы - температура, при понижении до которой содержащийся в воздухе водяной пар достигнет насыщения.
f - Относительная влажность воздуха - влажноcть воздуха, измеренная на высоте 2 м над землей.
Te - Эффективная температура - температура, которую ощущает одетый по сезону человек в тени. Характеристика душности погоды. При расчете учитывается влияние влажности воздуха и скорости ветра на теплоощущения человека.
Tes - Эффективная температура на солнце - температура, которую ощущает человек, с поправкой на солнечный нагрев. Характеристика знойности погоды. Зависит от высоты солнца над горизонтом, облачности и скорости ветра. Ночью, в пасмурную погоду, а также при ветре 12 м/с и более поправка равна нулю.
P - Атмосферное давление - приведенное к уровню моря атмосферное давление.
Po - Атмосферное давление - измеренное на уровне метеостанции атмосферное давление.
Tmin - Минимальная температура - минимум температуры воздуха на высоте 2 м над землей.
Tmax - Максимальная температура - максимум температуры воздуха на высоте 2 м над землей.
R - Количество осадков - Количество выпавших осадков за 3 или 6 часов, мм.
SD - Снежный покров - Высота снежного покрова, см.